User: anonymous   Login
Location: Unspecified
(0.0000°N, 0.0000°E)
Time: 09:26:25
(UTC+02:00)
Language:

Ariane H10 - Orbit

View from above orbital plane
View from above orbital plane
View from above satellite
View from above satellite

Ground track
Ground track

The orbit data is extracted from the following two-line orbital elements,

1 19122U 88040B   17145.52040037 -.00000259 +00000-0 -11917-2 0  9993
2 19122 006.8906 181.6719 7135148 118.7115 329.1633 02.33375242196422
Epoch (UTC): 25 May 2017 12:29:22
Eccentricity: 0.7135148
inclination: 6.8906°
perigee height: 500 km
apogee height: 34760 km
right ascension of ascending node: 181.6719°
argument of perigee: 118.7115°
revolutions per day: 2.33375242
mean anomaly at epoch: 329.1633°
orbit number at epoch: 19642

The dashed part of the orbit path shows where the satellite is in the earth's shadow,  

DLR